SCP
0 0 0 0 0 0 0 0 0 0 0 0 0 0 0 0 0 0 0 0 0 0
0 0 0 0 0 0 0 0 0 0 0 0 0 0 0 0 0 0 0 0 0 0
0 0 0 0 0 0 0 0 0 0 0 0 0 0 0 0 0 0 0 0 0 0
0 0 0 0 0 0 0 0 0 0 0 0 0 0 0 0 0 0 0 0 0 0
0 0 0 0 0 0 0 0 0 0 0 0 0 0 0 0 0 0 0 0 0 0
0 0 0 0 0 0 0 0 0 0 0 0 0 0 0 0 0 0 0 0 0 0
0 0 0 0 0 0 0 0 0 0 0 0 0 0 0 0 0 0 0 0 0 0
0 0 0 0 0 0 0 0 0 0 0 0 0 0 0 0 0 0 0 0 0 0
0 0 0 0 0 0 0 0 0 0 0 0 0 0 0 0 0 0 0 0 0 0
0 0 0 0 0 0 0 0 0 0 0 0 0 0 0 0 0 0 0 0 0 0
0 0 0 0 0 0 0 0 0 0 0 0 0 0 0 0 0 0 0 0 0 0
0 0 0 0 0 0 0 0 0 0 0 0 0 0 0 0 0 0 0 0 0 0
0 0 0 0 0 0 0 0 0 0 0 0 0 0 0 0 0 0 0 0 0 0
0 0 0 0 0 0 0 0 0 0 0 0 0 0 0 0 0 0 0 0 0 0
Wind_Speed_500mb
92 92 92 91 91 90 89 88 83 79 77 73 68 62 54 45 39 41 41 39 38 39
95 96 96 92 90 91 88 85 80 77 77 75 71 65 58 49 41 42 45 46 43 41
100 98 99 94 90 91 90 89 82 79 81 77 73 68 61 53 47 48 48 49 46 42
106 105 107 102 96 91 90 89 85 83 84 81 76 70 64 58 53 53 51 47 48 44
104 108 113 112 106 98 96 89 86 86 85 83 80 74 69 64 58 55 52 49 47 43
107 107 112 114 111 106 102 93 91 91 91 89 84 78 73 67 61 57 52 49 46 42
108 107 107 109 111 109 106 98 95 95 92 90 85 80 77 71 63 58 53 49 46 42
106 108 108 109 107 106 104 99 94 93 92 93 89 87 81 72 63 58 55 50 45 42
112 111 112 105 105 104 98 95 94 95 97 97 94 87 80 73 65 59 55 51 46 37
111 111 110 101 102 101 97 94 95 99 98 98 92 85 82 75 65 60 54 50 42 42
105 107 102 99 100 98 96 94 96 102 100 98 95 91 85 77 67 59 55 47 46 41
93 97 97 95 98 96 97 96 100 101 99 99 94 91 83 74 65 56 48 49 43 41
82 86 88 88 93 93 93 96 98 97 97 95 91 86 79 74 63 49 54 51 44 44
64 71 76 79 83 85 90 93 95 94 94 96 90 83 76 71 57 55 57 49 44 30
Wind_Direction_500mb
230 234 236 239 239 240 240 241 238 234 233 232 232 234 238 246 257 267 273 278 283 283
231 235 235 237 238 240 242 242 240 239 236 232 231 233 236 240 249 262 270 274 276 279
235 236 238 238 239 241 241 242 239 237 235 233 233 233 234 238 244 251 258 267 272 274
241 240 241 239 238 239 241 242 238 234 233 232 233 233 234 236 242 249 257 262 270 272
246 244 244 242 241 238 239 238 238 233 232 233 232 232 234 237 242 248 253 258 263 268
246 246 246 245 244 241 239 236 235 232 232 232 231 231 232 235 240 246 252 256 261 263
248 249 248 247 245 241 239 235 233 232 231 231 231 230 231 234 238 246 251 256 258 259
252 250 248 246 245 241 238 235 233 231 228 229 228 229 230 233 238 244 249 253 254 258
249 248 247 244 242 239 235 232 230 228 227 228 227 227 231 234 236 241 246 252 251 259
249 246 244 242 239 236 232 230 228 227 226 226 227 227 230 234 237 240 245 249 254 261
250 245 242 238 236 232 230 229 228 228 226 225 224 224 228 233 234 237 241 248 256 268
251 245 241 237 234 229 227 225 225 227 227 226 223 223 226 230 232 235 245 253 255 264
252 246 242 236 233 230 228 226 223 224 226 226 223 224 225 227 228 234 242 246 252 260
257 247 244 240 235 232 226 224 224 222 223 222 219 220 224 229 227 237 241 242 246 258
Wind_Speed_850mb
92 92 92 91 91 90 89 88 83 79 77 73 68 62 54 45 39 41 41 39 38 39
95 96 96 92 90 91 88 85 80 77 77 75 71 65 58 49 41 42 45 46 43 41
100 98 99 94 90 91 90 89 82 79 81 77 73 68 61 53 47 48 48 49 46 42
106 105 107 102 96 91 90 89 85 83 84 81 76 70 64 58 53 53 51 47 48 44
104 108 113 112 106 98 96 89 86 86 85 83 80 74 69 64 58 55 52 49 47 43
107 107 112 114 111 106 102 93 91 91 91 89 84 78 73 67 61 57 52 49 46 42
108 107 107 109 111 109 106 98 95 95 92 90 85 80 77 71 63 58 53 49 46 42
106 108 108 109 107 106 104 99 94 93 92 93 89 87 81 72 63 58 55 50 45 42
112 111 112 105 105 104 98 95 94 95 97 97 94 87 80 73 65 59 55 51 46 37
111 111 110 101 102 101 97 94 95 99 98 98 92 85 82 75 65 60 54 50 42 42
105 107 102 99 100 98 96 94 96 102 100 98 95 91 85 77 67 59 55 47 46 41
93 97 97 95 98 96 97 96 100 101 99 99 94 91 83 74 65 56 48 49 43 41
82 86 88 88 93 93 93 96 98 97 97 95 91 86 79 74 63 49 54 51 44 44
64 71 76 79 83 85 90 93 95 94 94 96 90 83 76 71 57 55 57 49 44 30
Wind_Direction_850mb
230 234 236 239 239 240 240 241 238 234 233 232 232 234 238 246 257 267 273 278 283 283
231 235 235 237 238 240 242 242 240 239 236 232 231 233 236 240 249 262 270 274 276 279
235 236 238 238 239 241 241 242 239 237 235 233 233 233 234 238 244 251 258 267 272 274
241 240 241 239 238 239 241 242 238 234 233 232 233 233 234 236 242 249 257 262 270 272
246 244 244 242 241 238 239 238 238 233 232 233 232 232 234 237 242 248 253 258 263 268
246 246 246 245 244 241 239 236 235 232 232 232 231 231 232 235 240 246 252 256 261 263
248 249 248 247 245 241 239 235 233 232 231 231 231 230 231 234 238 246 251 256 258 259
252 250 248 246 245 241 238 235 233 231 228 229 228 229 230 233 238 244 249 253 254 258
249 248 247 244 242 239 235 232 230 228 227 228 227 227 231 234 236 241 246 252 251 259
249 246 244 242 239 236 232 230 228 227 226 226 227 227 230 234 237 240 245 249 254 261
250 245 242 238 236 232 230 229 228 228 226 225 224 224 228 233 234 237 241 248 256 268
251 245 241 237 234 229 227 225 225 227 227 226 223 223 226 230 232 235 245 253 255 264
252 246 242 236 233 230 228 226 223 224 226 226 223 224 225 227 228 234 242 246 252 260
257 247 244 240 235 232 226 224 224 222 223 222 219 220 224 229 227 237 241 242 246 258